[[{"header":{"parameterUnit":"m.s-1","parameterCategory":1,"la1":30.2991,"la2":30.254,"lo1":-89.0895,"lo2":-89.0444,"dy":0.0017,"dx":0.0017,"nx":28,"ny":28,"refTime":"2024-06-06T21:00:00:Z","depth":0,"parameterNumber":2,"parameterNumberName":"U-component_of_WINDS"},"data":[0,0,0,0,0,0,0,0,0,0,0,0,0,0,0,0,0,0,0,0,0,0,0,0,0,0,0,0,0,0,0,0,0,0,0,0,0,0,0,0,0,0,0,0,0,0,0,0,0,0,0,0,0,0,0,0,0,0,1.5558,1.556,0,1.5693,1.5695,1.5696,1.5729,1.5728,1.5727,1.5727,1.5868,1.5872,1.5877,0,0,0,0,0,0,0,0,0,0,0,0,0,1.5331,1.5335,1.5558,1.556,1.5562,1.5693,1.5695,1.5697,1.5729,1.5728,1.5727,1.5726,1.5866,1.5871,1.5877,0,0,0,0,0,0,0,0,0,0,0,0,0,1.5444,1.5336,1.5558,1.5594,1.5598,1.5693,1.5695,1.5697,1.573,1.5728,1.5727,1.5726,1.5864,1.5871,1.5878,1.5947,0,0,1.5899,1.5902,0,0,0,0,0,0,0,0,1.5437,1.5452,1.5587,1.5591,1.5597,1.5693,1.5666,1.5781,1.573,1.568,1.5727,1.5725,1.5811,1.5822,1.585,1.5954,1.596,1.5899,1.5904,1.5907,1.5908,0,0,0,0,0,0,0,1.5429,1.5447,1.5612,1.5589,1.5595,1.5603,1.5618,1.5688,1.5751,1.5684,1.5687,1.5702,1.5813,1.5844,1.5854,1.5962,1.5899,1.5905,1.591,1.5912,1.6127,1.6129,0,0,0,0,0,0,1.5415,1.544,1.5607,1.5616,1.5512,1.5609,1.5625,1.5663,1.575,1.5762,1.5703,1.5703,1.5832,1.5846,1.5859,1.5945,1.5906,1.5913,1.5917,1.6126,1.6128,1.6129,0,0,0,0,0,0,1.541,1.543,1.5602,1.5529,1.5551,1.5614,1.5657,1.5667,1.5697,1.5765,1.5777,1.5722,1.5832,1.5849,1.5924,1.595,1.5916,1.5922,1.6124,1.6126,1.6128,1.6117,0,0,0,0,0,0,1.5403,1.5428,1.5454,1.5529,1.5555,1.5664,1.5658,1.567,1.5709,1.571,1.5786,1.5797,1.5832,1.5914,1.5931,1.5959,1.5928,1.6122,1.6125,1.6128,1.6115,1.6119,1.6122,0,0,0,0,0,1.5395,1.5447,1.5456,1.5476,1.5589,1.5666,1.5681,1.5719,1.571,1.5738,1.5781,1.5795,1.5944,1.5921,1.5941,1.5971,1.612,1.6124,1.6128,1.6114,1.6118,1.6122,0,0,0,0,0,0,1.5375,1.5457,1.5468,1.5545,1.5598,1.5671,1.5707,1.5722,1.578,1.5779,1.5824,1.5841,1.5913,1.595,1.5923,1.6042,1.6032,1.604,1.6015,1.602,1.6023,1.6012,1.5933,0,0,0,0,0,1.5379,1.5434,1.5503,1.5564,1.559,1.5644,1.5679,1.5703,1.5761,1.5784,1.5833,1.5888,1.5948,1.5986,1.6044,1.6121,1.6138,1.6151,1.6154,1.6157,1.6163,1.6205,1.6211,1.6141,1.6141,1.6141,0,0,1.5389,1.544,1.5472,1.5561,1.5605,1.5661,1.5663,1.5722,1.5764,1.5793,1.5866,1.5904,1.5969,1.6045,1.6081,1.6078,1.6186,1.6161,1.6162,1.6168,1.6209,1.6216,1.6221,1.6143,1.6143,1.6143,0,0,1.5435,1.548,1.5535,1.5579,1.5645,1.568,1.5693,1.5764,1.579,1.5864,1.5886,1.5937,1.6039,1.6084,1.612,1.6182,1.6196,1.62,1.6216,1.6256,1.6262,1.6267,1.6288,1.6295,1.6206,1.6206,1.6206,0,1.5438,1.5523,1.5562,1.5619,1.5658,1.5685,1.5741,1.5782,1.5865,1.5891,1.5886,1.6013,1.6059,1.6145,1.6159,1.6188,1.6205,1.6191,1.6258,1.6263,1.6269,1.6289,1.6297,1.6205,1.6205,1.6205,1.6205,0,1.5524,1.5582,1.5619,1.5696,1.5739,1.5796,1.5843,1.5882,1.5902,1.5938,1.6012,1.6068,1.6138,1.616,1.6182,1.6249,1.6245,1.6248,1.6239,1.6274,1.6294,1.6303,1.6205,1.6205,1.6205,1.6205,0,0,1.5561,1.5658,1.5671,1.5706,1.578,1.5826,1.5884,1.5951,1.5983,1.6039,1.6088,1.6173,1.6176,1.6217,1.6244,1.6279,1.6323,1.6278,1.628,1.6284,1.6399,1.6396,1.6404,1.6333,1.6335,1.6336,1.6393,0,1.5615,1.5719,1.5755,1.5841,1.5894,1.5921,1.5971,1.6022,1.6057,1.6108,1.6147,1.6206,1.6206,1.6231,1.6267,1.631,1.6347,1.6306,1.6379,1.6381,1.6361,1.6415,1.6412,1.6463,1.6402,1.6403,1.6404,0,1.5693,1.5748,1.5838,1.5905,1.5929,1.5974,1.6037,1.6086,1.6145,1.6167,1.6212,1.6236,1.6298,1.6285,1.637,1.6342,1.6374,1.6399,1.6402,1.641,1.6394,1.6423,1.6481,1.6488,1.6417,1.6416,1.6415,0,1.5709,1.5807,1.5873,1.5902,1.5982,1.6013,1.6047,1.6105,1.6142,1.6198,1.6223,1.6286,1.632,1.6368,1.6408,1.6395,1.6489,1.648,1.651,1.6509,1.6528,1.6526,1.659,1.655,1.655,1.6549,1.6549,0,1.5766,1.582,1.5881,1.5922,1.5983,1.6024,1.6084,1.6121,1.6171,1.622,1.6247,1.6292,1.6342,1.6394,1.6426,1.6491,1.6507,1.6526,1.6534,1.6524,1.6521,1.6545,1.6542,1.6552,1.6551,1.6551,1.655,0,1.5794,1.5838,1.5912,1.5981,1.6,1.6042,1.6101,1.6142,1.6177,1.6238,1.6255,1.6311,1.6372,1.6417,1.6498,1.6519,1.6588,1.6597,1.6568,1.6572,1.6598,1.6595,1.668,1.6693,1.6644,1.6644,1.6645,0,1.5827,1.5869,1.5943,1.5976,1.6011,1.6066,1.6104,1.6146,1.6184,1.6253,1.6285,1.6349,1.6402,1.65,1.6548,1.6609,1.6618,1.6644,1.6628,1.6616,1.6618,1.6614,1.6618,1.6646,1.6646,1.6647,1.6647,0,1.588,1.59,1.5953,1.6014,1.6058,1.6109,1.6159,1.6185,1.6237,1.6278,1.6341,1.6382,1.6464,1.6526,1.6592,1.6628,1.6646,1.6651,1.6661,1.6651,1.6632,1.6642,1.6574,1.6649,1.6649,1.6649,1.6649,1.6649,1.5912,1.595,1.6007,1.6066,1.6108,1.6154,1.6195,1.6235,1.6288,1.6357,1.6379,1.6444,1.6501,1.6591,1.6628,1.6679,1.6678,1.6693,1.6697,1.6699,1.6698,1.6624,1.6692,1.6692,1.6692,1.6692,1.6692,0,1.5965,1.6003,1.6057,1.6126,1.6172,1.6184,1.624,1.6278,1.6334,1.6386,1.6437,1.6509,1.6569,1.6622,1.6684,1.6715,1.6725,1.673,1.6728,1.6736,1.6696,1.6681,1.6721,1.6721,1.6721,1.6721,1.6721,1.6721,1.5999,1.6064,1.6089,1.6175,1.6213,1.6276,1.6307,1.635,1.6391,1.647,1.652,1.6553,1.6605,1.6671,1.6727,1.6741,1.6763,1.6766,1.6781,1.6743,1.6739,1.6736,1.6722,1.677,1.677,1.6817,1.6818,1.6818]},{"header":{"parameterUnit":"m.s-1","parameterCategory":1,"la1":30.2991,"la2":30.254,"lo1":-89.0895,"lo2":-89.0444,"dy":0.0017,"dx":0.0017,"nx":28,"ny":28,"refTime":"2024-06-06T21:00:00:Z","depth":0,"parameterNumber":3,"parameterNumberName":"V-component_of_WINDS"},"data":[0,0,0,0,0,0,0,0,0,0,0,0,0,0,0,0,0,0,0,0,0,0,0,0,0,0,0,0,0,0,0,0,0,0,0,0,0,0,0,0,0,0,0,0,0,0,0,0,0,0,0,0,0,0,0,0,0,0,3.7865,3.7865,0,3.7846,3.7846,3.7846,3.7841,3.7842,3.7842,3.7842,3.782,3.7819,3.7818,0,0,0,0,0,0,0,0,0,0,0,0,0,3.7893,3.7893,3.7865,3.7865,3.7864,3.7846,3.7846,3.7846,3.7841,3.7842,3.7842,3.7842,3.782,3.7819,3.7818,0,0,0,0,0,0,0,0,0,0,0,0,0,3.7878,3.7893,3.7865,3.786,3.786,3.7846,3.7846,3.7845,3.7841,3.7842,3.7842,3.7842,3.782,3.7819,3.7818,3.7807,0,0,3.7815,3.7814,0,0,0,0,0,0,0,0,3.7879,3.7877,3.7861,3.786,3.786,3.7846,3.7848,3.7832,3.7841,3.7848,3.7842,3.7842,3.7828,3.7826,3.7822,3.7806,3.7805,3.7815,3.7814,3.7814,3.7813,0,0,0,0,0,0,0,3.788,3.7878,3.7857,3.7861,3.786,3.7858,3.7856,3.7845,3.7837,3.7848,3.7847,3.7845,3.7828,3.7823,3.7822,3.7805,3.7815,3.7814,3.7813,3.7813,3.7776,3.7776,0,0,0,0,0,0,3.7882,3.7879,3.7858,3.7857,3.787,3.7857,3.7855,3.785,3.7837,3.7836,3.7845,3.7845,3.7825,3.7823,3.7821,3.7806,3.7814,3.7813,3.7812,3.7776,3.7776,3.7775,0,0,0,0,0,0,3.7883,3.7881,3.7859,3.7868,3.7865,3.7856,3.7851,3.785,3.7846,3.7835,3.7834,3.7842,3.7825,3.7823,3.781,3.7805,3.7812,3.7811,3.7777,3.7776,3.7776,3.7776,0,0,0,0,0,0,3.7884,3.7881,3.7878,3.7868,3.7864,3.7849,3.7851,3.7849,3.7844,3.7844,3.7832,3.7831,3.7825,3.7812,3.7809,3.7804,3.781,3.7777,3.7776,3.7776,3.7777,3.7776,3.7775,0,0,0,0,0,3.7885,3.7878,3.7878,3.7875,3.786,3.7849,3.7847,3.7842,3.7844,3.784,3.7833,3.7831,3.7806,3.7811,3.7808,3.7802,3.7777,3.7777,3.7776,3.7777,3.7776,3.7775,0,0,0,0,0,0,3.7887,3.7877,3.7876,3.7866,3.7859,3.7849,3.7844,3.7842,3.7833,3.7833,3.7826,3.7823,3.7811,3.7805,3.781,3.7789,3.7792,3.779,3.7794,3.7792,3.7792,3.7793,3.7809,0,0,0,0,0,3.7887,3.788,3.7871,3.7863,3.7859,3.7852,3.7847,3.7844,3.7835,3.7832,3.7824,3.7815,3.7805,3.7798,3.7789,3.7776,3.7772,3.777,3.7769,3.7769,3.7767,3.7758,3.7756,3.7773,3.7773,3.7773,0,0,3.7886,3.7879,3.7875,3.7863,3.7857,3.7849,3.7849,3.7841,3.7834,3.783,3.7818,3.7812,3.7801,3.7788,3.7782,3.7783,3.7762,3.7768,3.7767,3.7766,3.7757,3.7755,3.7754,3.7773,3.7773,3.7773,0,0,3.7879,3.7874,3.7866,3.786,3.7851,3.7846,3.7844,3.7833,3.7829,3.7817,3.7814,3.7804,3.7788,3.778,3.7773,3.7762,3.7759,3.7759,3.7755,3.7745,3.7744,3.7743,3.7737,3.7735,3.7757,3.7757,3.7757,0,3.7879,3.7867,3.7863,3.7854,3.7848,3.7844,3.7835,3.7829,3.7817,3.7812,3.7813,3.7791,3.7784,3.7768,3.7765,3.776,3.7756,3.776,3.7745,3.7743,3.7742,3.7736,3.7735,3.7757,3.7757,3.7757,3.7757,0,3.7866,3.7858,3.7852,3.7841,3.7834,3.7826,3.7818,3.7812,3.7809,3.7803,3.7789,3.778,3.7767,3.7763,3.776,3.7746,3.7747,3.7747,3.7749,3.7741,3.7735,3.7733,3.7757,3.7757,3.7757,3.7757,0,0,3.7861,3.7847,3.7845,3.7839,3.7827,3.782,3.781,3.7799,3.7792,3.7783,3.7774,3.7759,3.7758,3.7751,3.7746,3.7738,3.7727,3.7739,3.7738,3.7736,3.7709,3.7708,3.7706,3.7726,3.7725,3.7725,3.7709,0,3.7852,3.7836,3.7831,3.7817,3.7808,3.7803,3.7794,3.7785,3.7779,3.777,3.7762,3.7751,3.7752,3.7747,3.7739,3.7731,3.7722,3.7732,3.7715,3.7714,3.7717,3.7704,3.7704,3.769,3.7707,3.7707,3.7707,0,3.7841,3.7832,3.7817,3.7805,3.7801,3.7793,3.7781,3.7773,3.7761,3.7757,3.7748,3.7744,3.7731,3.7734,3.7715,3.7722,3.7714,3.7709,3.7708,3.7706,3.771,3.77,3.7685,3.7683,3.7704,3.7704,3.7704,0,3.7837,3.7821,3.781,3.7805,3.7791,3.7786,3.7779,3.7768,3.7761,3.775,3.7745,3.7732,3.7725,3.7714,3.7705,3.7709,3.7686,3.7689,3.7681,3.7681,3.7676,3.7676,3.7659,3.7673,3.7673,3.7673,3.7673,0,3.7828,3.7818,3.7808,3.7801,3.7789,3.7783,3.7771,3.7764,3.7754,3.7744,3.7739,3.7729,3.7719,3.7707,3.77,3.7685,3.7682,3.7676,3.7674,3.7676,3.7677,3.7671,3.7671,3.7672,3.7672,3.7673,3.7673,0,3.7822,3.7815,3.7802,3.779,3.7786,3.7778,3.7767,3.7759,3.7752,3.7739,3.7735,3.7724,3.771,3.77,3.7682,3.7677,3.7659,3.7658,3.7663,3.7662,3.7654,3.7654,3.7631,3.7627,3.7645,3.7644,3.7644,0,3.7816,3.7809,3.7796,3.7789,3.7783,3.7773,3.7765,3.7757,3.7749,3.7735,3.7728,3.7713,3.7701,3.7678,3.7667,3.7652,3.765,3.7643,3.7648,3.7649,3.7648,3.7648,3.7646,3.7642,3.7642,3.7642,3.7641,0,3.7806,3.7803,3.7793,3.7781,3.7772,3.7763,3.7752,3.7747,3.7737,3.7728,3.7713,3.7704,3.7685,3.767,3.7654,3.7645,3.764,3.764,3.7637,3.7638,3.7641,3.7638,3.766,3.764,3.7641,3.7641,3.7641,3.7641,3.78,3.7792,3.7782,3.777,3.7762,3.7752,3.7743,3.7735,3.7723,3.7708,3.7703,3.7688,3.7674,3.7652,3.7643,3.7629,3.7629,3.7626,3.7624,3.7623,3.7622,3.7644,3.7626,3.7626,3.7626,3.7626,3.7626,0,3.7789,3.7781,3.7771,3.7757,3.7747,3.7745,3.7733,3.7724,3.7711,3.7699,3.7687,3.7669,3.7654,3.7641,3.7625,3.7616,3.7613,3.7612,3.7612,3.761,3.7624,3.7627,3.7614,3.7614,3.7614,3.7614,3.7614,3.7614,3.7782,3.7768,3.7763,3.7745,3.7737,3.7723,3.7716,3.7706,3.7696,3.7677,3.7664,3.7656,3.7643,3.7625,3.761,3.7607,3.76,3.7599,3.7594,3.7608,3.7609,3.761,3.7613,3.7598,3.7598,3.7581,3.7581,3.7581]}]]